Coraopolis, PA

4:36 AM EST on February 22, 2017 (GMT -0500)
Pittsburgh International

Weather History for KPIT - December, 2010

Change the Weather History Date:

Thursday, December 23, 2010

  Actual Average Record
Temperature  
Mean Temperature 28 °F 30 °F  
Max Temperature 30 °F 37 °F 64 °F (2015)
Min Temperature 26 °F 23 °F -3 °F (1960)
Degree Days  
Heating Degree Days 37 35  
Month to date heating degree days 924 729  
Since 1 July heating degree days 2025 1892  
Cooling Degree Days 0 0  
Month to date cooling degree days 0 0  
Year to date cooling degree days 1029 736  
Moisture  
Dew Point 22 °F    
Average Humidity 74    
Maximum Humidity 85    
Minimum Humidity 63    
Precipitation  
Precipitation 0.05 in 0.09 in 1.33 in (1883)
Month to date precipitation 1.43 2.14  
Year to date precipitation 37.72 37.48  
Snow  
Snow 0.60 in 0.30 in 5.00 in (1929)
Month to date snowfall 9.9 5.8  
Since 1 July snowfall 9.9 8.2  
Snow Depth 1.00 in    
Sea Level Pressure  
Sea Level Pressure 30.25 in    
Wind  
Wind Speed 14 mph (WNW)    
Max Wind Speed 23 mph    
Max Gust Speed 30 mph    
Visibility 7 miles    
Events Snow    
T = Trace of Precipitation, MM = Missing Value Source: NWS Daily Summary

Daily Weather History Graph

Daily Weather History Graph

Search for Another Location

Airport or City:

Trip Planner

Search our weather history database for the weather conditions in past years. The results will help you decide how hot, cold, wet, or windy it might be!

Date:

Astronomy

Dec. 23, 2010 Rise Set
Actual Time 7:41 AM EST 4:58 PM EST
Civil Twilight 7:10 AM EST 5:29 PM EST
Nautical Twilight 6:36 AM EST 6:03 PM EST
Astronomical Twilight 6:03 AM EST 6:36 PM EST
Moon 7:51 PM EST (12/23) 9:24 AM EST (12/23)
Length of Visible Light 10h 18m
Length of Day
9h 16m
Waning Gibbous, 93% of the Moon is Illuminated
Dec 23
Waning Gibbous
Dec 27
Last Quarter
Jan 4
New
Jan 12
First Quarter
Jan 19
Full

Hourly Weather History & Observations

Time (EST) Temp. Windchill Dew Point Humidity Pressure Visibility Wind Dir Wind Speed Gust Speed Precip Events Conditions
12:51 AM 27.0 °F 18.0 °F 23.0 °F 85% 30.21 in 10.0 mi NW 9.2 mph - 0.00 in Snow Light Snow
1:51 AM 28.0 °F 20.0 °F 24.1 °F 85% 30.21 in 3.0 mi WNW 8.1 mph - 0.00 in Snow Light Snow
2:07 AM 28.4 °F 21.2 °F 24.8 °F 86% 30.15 in 2.0 mi NW 6.9 mph - 0.00 in Snow Light Snow
2:18 AM 28.4 °F 22.2 °F 24.8 °F 86% 30.15 in 4.0 mi NW 5.8 mph - 0.00 in Snow Light Snow
2:51 AM 28.0 °F 19.3 °F 24.1 °F 85% 30.22 in 4.0 mi NW 9.2 mph - 0.01 in Snow Light Snow
3:51 AM 27.0 °F 16.1 °F 23.0 °F 85% 30.23 in 6.0 mi WNW 12.7 mph - 0.01 in Snow Light Snow
4:51 AM 28.0 °F 16.5 °F 21.9 °F 78% 30.22 in 10.0 mi WNW 15.0 mph 23.0 mph 0.00 in Snow Light Snow
5:51 AM 28.0 °F 16.1 °F 21.9 °F 78% 30.23 in 8.0 mi WNW 16.1 mph - 0.00 in Snow Light Snow
6:14 AM 28.4 °F 16.6 °F 21.2 °F 74% 30.17 in 9.0 mi WNW 16.1 mph - 0.00 in Snow Light Snow
6:51 AM 28.0 °F 16.1 °F 21.9 °F 78% 30.25 in 9.0 mi WNW 16.1 mph - 0.00 in Snow Light Snow
7:27 AM 28.4 °F 17.0 °F 21.2 °F 74% 30.18 in 9.0 mi WNW 15.0 mph - 0.00 in Snow Light Snow
7:51 AM 28.0 °F 16.1 °F 23.0 °F 81% 30.25 in 9.0 mi WNW 16.1 mph - 0.00 in Snow Light Snow
8:51 AM 28.0 °F 16.5 °F 23.0 °F 81% 30.27 in 9.0 mi WNW 15.0 mph - 0.00 in Snow Light Snow
9:34 AM 28.4 °F 16.2 °F 24.8 °F 86% 30.20 in 8.0 mi WNW 17.3 mph - 0.00 in Snow Light Snow
9:51 AM 28.9 °F 17.3 °F 24.1 °F 82% 30.27 in 6.0 mi WNW 16.1 mph - 0.00 in Snow Light Snow
10:02 AM 28.4 °F 18.0 °F 24.8 °F 86% 30.21 in 2.5 mi WNW 12.7 mph - 0.00 in Snow Light Snow
10:40 AM 28.4 °F 17.5 °F 24.8 °F 86% 30.22 in 4.0 mi WNW 13.8 mph - 0.00 in Snow Light Snow
10:51 AM 28.9 °F 16.9 °F 24.1 °F 82% 30.29 in 4.0 mi WNW 17.3 mph - 0.00 in Snow Light Snow
11:20 AM 28.4 °F 16.2 °F 24.8 °F 86% 30.21 in 2.0 mi WNW 17.3 mph - 0.00 in Snow Light Snow
11:51 AM 28.9 °F 18.2 °F 25.0 °F 85% 30.27 in 2.0 mi WNW 13.8 mph - 0.00 in Snow Light Snow
12:20 PM 30.2 °F 20.2 °F 24.8 °F 80% 30.19 in 7.0 mi WNW 12.7 mph - 0.00 in Snow Light Snow
12:42 PM 28.4 °F 16.6 °F 24.8 °F 86% 30.19 in 2.5 mi WNW 16.1 mph - 0.00 in Snow Light Snow
12:51 PM 28.9 °F 18.6 °F 24.1 °F 82% 30.26 in 2.5 mi WNW 12.7 mph - 0.00 in Snow Light Snow
1:05 PM 30.2 °F 20.2 °F 24.8 °F 80% 30.18 in 6.0 mi WNW 12.7 mph - 0.00 in Snow Light Snow
1:51 PM 30.0 °F 19.1 °F 21.9 °F 72% 30.25 in 8.0 mi WNW 15.0 mph - 0.00 in Snow Light Snow
2:51 PM 30.0 °F 20.5 °F 21.9 °F 72% 30.26 in 9.0 mi NW 11.5 mph 21.9 mph 0.00 in Snow Light Snow
3:51 PM 28.9 °F 16.5 °F 19.0 °F 67% 30.28 in 9.0 mi NW 18.4 mph 26.5 mph 0.00 in Snow Light Snow
4:51 PM 28.0 °F 15.7 °F 17.1 °F 63% 30.30 in 9.0 mi NW 17.3 mph 24.2 mph 0.00 in Snow Light Snow
5:51 PM 27.0 °F 18.0 °F 18.0 °F 69% 30.31 in 9.0 mi NW 9.2 mph - 0.00 in Snow Light Snow
6:17 PM 26.6 °F 16.2 °F 19.4 °F 74% 30.25 in 9.0 mi WNW 11.5 mph - 0.00 in Snow Light Snow
6:44 PM 26.6 °F 15.7 °F 19.4 °F 74% 30.25 in 9.0 mi WNW 12.7 mph - 0.00 in Snow Light Snow
6:51 PM 26.1 °F 15.6 °F 19.0 °F 75% 30.32 in 9.0 mi WNW 11.5 mph - 0.00 in Snow Light Snow
7:51 PM 27.0 °F 16.1 °F 18.0 °F 69% 30.32 in 9.0 mi NW 12.7 mph - 0.00 in Snow Light Snow
8:51 PM 27.0 °F 16.7 °F 18.0 °F 69% 30.32 in 9.0 mi NW 11.5 mph - 0.00 in Snow Light Snow
9:51 PM 27.0 °F 14.3 °F 18.0 °F 69% 30.33 in 10.0 mi NW 17.3 mph 21.9 mph 0.00 in Snow Light Snow
10:51 PM 27.0 °F 16.1 °F 17.1 °F 66% 30.33 in 10.0 mi NW 12.7 mph - 0.00 in Snow Light Snow
11:51 PM 26.1 °F 16.8 °F 18.0 °F 71% 30.32 in 10.0 mi NW 9.2 mph - 0.00 in   Overcast